When you browse on this site, cookies collect data to enhance your experience and personalize the content and advertising you see.
Visit our Privacy Policy to learn more. By continuing to use the site, you agree to this use of cookies and data.
  • In Czech Republic
  • List of Countries
  • For 7 days
  • Water Temperature
  • Weather Map
  • Weather Widgets
  • user-avatar
    Login

    Hourly Weather Satif

    Today, 22 February, Saturday

    Time Temperature Precipitation Wind Pressure Humidity
    00:00 +5°C° 0 mm 0 mps 677 mmHg 69%
    01:00 +4°C° 0 mm 0 mps 677 mmHg 66%
    02:00 +4°C° 0 mm 0 mps 677 mmHg 64%
    03:00 +4°C° 0 mm 0 mps 677 mmHg 62%
    04:00 +3°C° 0 mm 0 mps 677 mmHg 60%
    05:00 +3°C° 0 mm 0 mps 677 mmHg 59%
    06:00 +3°C° 0 mm 0 mps 677 mmHg 57%
    07:00 +5°C° 0 mm 0 mps 678 mmHg 49%
    08:00 +7°C° 0 mm 0 mps 679 mmHg 41%
    09:00 +10°C° 0 mm 0 mps 680 mmHg 33%
    10:00 +12°C° 0 mm 1 mps 680 mmHg 30%
    11:00 +13°C° 0 mm 1 mps 681 mmHg 27%
    12:00 +14°C° 0 mm 1 mps 681 mmHg 25%
    13:00 +14°C° 0 mm 2 mps 681 mmHg 27%
    14:00 +14°C° 0 mm 3 mps 681 mmHg 28%
    15:00 +14°C° 0 mm 4 mps 681 mmHg 30%
    16:00 +12°C° 0 mm 3 mps 681 mmHg 39%
    17:00 +10°C° 0 mm 3 mps 680 mmHg 47%
    18:00 +8°C° 0 mm 2 mps 680 mmHg 56%
    19:00 +7°C° 0 mm 2 mps 680 mmHg 59%
    20:00 +7°C° 0 mm 1 mps 680 mmHg 62%
    21:00 +7°C° 0 mm 1 mps 680 mmHg 65%
    22:00 +6°C° 0 mm 1 mps 680 mmHg 65%
    23:00 +6°C° 0 mm 1 mps 680 mmHg 64%

    Tomorrow, 23 February, Sunday

    Time Temperature Precipitation Wind Pressure Humidity
    00:00 +6°C° 0 mm 1 mps 680 mmHg 64%
    01:00 +5°C° 0 mm 1 mps 680 mmHg 63%
    02:00 +5°C° 0 mm 1 mps 679 mmHg 63%
    03:00 +4°C° 0 mm 0 mps 679 mmHg 62%
    04:00 +3°C° 0 mm 0 mps 679 mmHg 60%
    05:00 +3°C° 0 mm 0 mps 679 mmHg 57%
    06:00 +3°C° 0 mm 0 mps 679 mmHg 54%
    07:00 +6°C° 0 mm 1 mps 680 mmHg 48%
    08:00 +9°C° 0 mm 1 mps 681 mmHg 41%
    09:00 +11°C° 0 mm 1 mps 682 mmHg 35%
    10:00 +13°C° 0 mm 2 mps 683 mmHg 33%
    11:00 +14°C° 0 mm 2 mps 683 mmHg 31%
    12:00 +15°C° 0 mm 2 mps 683 mmHg 28%
    13:00 +16°C° 0 mm 2 mps 683 mmHg 28%
    14:00 +16°C° 0 mm 2 mps 682 mmHg 28%
    15:00 +16°C° 0 mm 2 mps 682 mmHg 28%
    16:00 +14°C° 0 mm 2 mps 681 mmHg 35%
    17:00 +13°C° 0 mm 1 mps 681 mmHg 43%
    18:00 +11°C° 0 mm 1 mps 680 mmHg 50%
    19:00 +10°C° 0 mm 1 mps 680 mmHg 53%
    20:00 +8°C° 0 mm 0 mps 680 mmHg 55%
    21:00 +8°C° 0 mm 0 mps 680 mmHg 58%
    22:00 +7°C° 0 mm 0 mps 680 mmHg 57%
    23:00 +7°C° 0 mm 0 mps 679 mmHg 56%

    Day after tomorrow, 24 February, Monday

    Time Temperature Precipitation Wind Pressure Humidity
    00:00 +7°C° 0 mm 0 mps 679 mmHg 56%
    01:00 +6°C° 0 mm 0 mps 679 mmHg 55%
    02:00 +7°C° 0 mm 1 mps 678 mmHg 53%
    03:00 +7°C° 0 mm 1 mps 678 mmHg 52%
    04:00 +7°C° 0 mm 1 mps 678 mmHg 53%
    05:00 +7°C° 0 mm 1 mps 677 mmHg 54%
    06:00 +6°C° 0 mm 1 mps 677 mmHg 56%
    07:00 +9°C° 0 mm 1 mps 678 mmHg 48%
    08:00 +11°C° 0 mm 1 mps 679 mmHg 41%
    09:00 +14°C° 0 mm 1 mps 680 mmHg 34%
    10:00 +15°C° 0 mm 1 mps 680 mmHg 31%
    11:00 +18°C° 0 mm 1 mps 680 mmHg 28%
    12:00 +19°C° 0 mm 1 mps 679 mmHg 25%
    13:00 +19°C° 0 mm 1 mps 679 mmHg 25%
    14:00 +20°C° 0 mm 1 mps 679 mmHg 25%
    15:00 +20°C° 0 mm 1 mps 678 mmHg 25%
    16:00 +18°C° 0 mm 1 mps 678 mmHg 32%
    17:00 +15°C° 0 mm 1 mps 677 mmHg 40%
    18:00 +13°C° 0 mm 1 mps 676 mmHg 47%
    19:00 +12°C° 0 mm 1 mps 676 mmHg 49%
    20:00 +12°C° 0 mm 1 mps 676 mmHg 50%
    21:00 +11°C° 0 mm 1 mps 676 mmHg 52%
    22:00 +11°C° 0 mm 1 mps 676 mmHg 51%
    23:00 +10°C° 0 mm 1 mps 675 mmHg 50%

    25 February, Tuesday

    Time Temperature Precipitation Wind Pressure Humidity
    00:00 +10°C° 0 mm 1 mps 675 mmHg 49%
    01:00 +10°C° 0 mm 1 mps 674 mmHg 49%
    02:00 +9°C° 0 mm 1 mps 674 mmHg 48%
    03:00 +9°C° 0 mm 1 mps 673 mmHg 48%
    04:00 +9°C° 0 mm 1 mps 673 mmHg 48%
    05:00 +8°C° 0 mm 1 mps 673 mmHg 47%
    06:00 +8°C° 0 mm 1 mps 673 mmHg 47%
    07:00 +10°C° 0 mm 2 mps 674 mmHg 42%
    08:00 +13°C° 0 mm 2 mps 674 mmHg 37%
    09:00 +15°C° 0 mm 2 mps 675 mmHg 32%
    10:00 +16°C° 0 mm 3 mps 675 mmHg 30%
    11:00 +18°C° 0 mm 4 mps 675 mmHg 27%
    12:00 +19°C° 0 mm 5 mps 675 mmHg 25%
    13:00 +17°C° 0 mm 5 mps 675 mmHg 26%
    14:00 +17°C° 0 mm 6 mps 674 mmHg 26%
    15:00 +17°C° 0 mm 6 mps 673 mmHg 27%
    16:00 +15°C° 0 mm 4 mps 673 mmHg 34%
    17:00 +13°C° 0 mm 3 mps 672 mmHg 42%
    18:00 +12°C° 0 mm 2 mps 672 mmHg 49%
    19:00 +10°C° 0 mm 2 mps 672 mmHg 52%
    20:00 +11°C° 0 mm 1 mps 672 mmHg 55%
    21:00 +10°C° 0 mm 1 mps 672 mmHg 58%
    22:00 +10°C° 0 mm 1 mps 672 mmHg 59%
    23:00 +9°C° 0 mm 1 mps 671 mmHg 59%

    26 February, Wednesday

    Time Temperature Precipitation Wind Pressure Humidity
    00:00 +8°C° 0 mm 2 mps 671 mmHg 60%
    01:00 +8°C° 0 mm 1 mps 671 mmHg 62%
    02:00 +8°C° 0 mm 1 mps 670 mmHg 64%
    03:00 +7°C° 0 mm 1 mps 670 mmHg 66%
    04:00 +7°C° 0 mm 1 mps 670 mmHg 67%
    05:00 +7°C° 0 mm 1 mps 670 mmHg 68%
    06:00 +6°C° 0 mm 1 mps 670 mmHg 69%
    07:00 +7°C° 0 mm 2 mps 670 mmHg 63%
    08:00 +9°C° 0 mm 2 mps 671 mmHg 56%
    09:00 +12°C° 0 mm 2 mps 672 mmHg 50%
    10:00 +12°C° 0 mm 3 mps 672 mmHg 46%
    11:00 +13°C° 0 mm 5 mps 672 mmHg 43%
    12:00 +14°C° 0 mm 6 mps 673 mmHg 40%
    13:00 +13°C° 0 mm 6 mps 672 mmHg 45%
    14:00 +12°C° 0 mm 7 mps 672 mmHg 49%
    15:00 +11°C° 0 mm 7 mps 671 mmHg 54%
    16:00 +10°C° 0 mm 6 mps 671 mmHg 62%
    17:00 +8°C° 0 mm 5 mps 671 mmHg 70%
    18:00 +7°C° 0 mm 4 mps 671 mmHg 78%
    19:00 +7°C° 0 mm 3 mps 672 mmHg 81%
    20:00 +5°C° 0 mm 3 mps 672 mmHg 84%
    21:00 +6°C° 0 mm 2 mps 672 mmHg 87%
    22:00 +4°C° 0 mm 3 mps 672 mmHg 87%
    23:00 +4°C° 0 mm 3 mps 673 mmHg 87%

    27 February, Thursday

    Time Temperature Precipitation Wind Pressure Humidity
    00:00 +3°C° 0 mm 3 mps 673 mmHg 87%
    01:00 +3°C° 0 mm 3 mps 673 mmHg 87%
    02:00 +3°C° 0 mm 3 mps 673 mmHg 87%
    03:00 +3°C° 0 mm 2 mps 673 mmHg 87%
    04:00 +3°C° 0 mm 2 mps 673 mmHg 88%
    05:00 +3°C° 0 mm 2 mps 673 mmHg 88%
    06:00 +3°C° 0 mm 2 mps 673 mmHg 89%
    07:00 +4°C° 0 mm 2 mps 674 mmHg 80%
    08:00 +4°C° 0 mm 3 mps 675 mmHg 71%
    09:00 +5°C° 0 mm 3 mps 676 mmHg 63%
    10:00 +7°C° 0 mm 3 mps 676 mmHg 57%
    11:00 +7°C° 0 mm 4 mps 676 mmHg 52%
    12:00 +8°C° 0 mm 4 mps 676 mmHg 47%
    13:00 +8°C° 0 mm 4 mps 676 mmHg 46%
    14:00 +10°C° 0 mm 4 mps 676 mmHg 45%
    15:00 +10°C° 0 mm 4 mps 676 mmHg 45%
    16:00 +9°C° 0 mm 3 mps 676 mmHg 50%
    17:00 +7°C° 0 mm 2 mps 675 mmHg 56%
    18:00 +6°C° 0 mm 2 mps 675 mmHg 62%
    19:00 +7°C° 0 mm 1 mps 676 mmHg 64%
    20:00 +6°C° 0 mm 1 mps 676 mmHg 66%
    21:00 +6°C° 0 mm 1 mps 676 mmHg 69%
    22:00 +6°C° 0 mm 1 mps 676 mmHg 69%
    23:00 +5°C° 0 mm 1 mps 676 mmHg 69%
    Show more